Weather History for Watertown, NY

Change the Weather History Date:

Sunday, March 3, 2013

  Actual Average Record
Temperature  
Mean Temperature 22 °F 25 °F  
Max Temperature 26 °F 36 °F 59 °F (2008)
Min Temperature 17 °F 15 °F -19 °F (2014)
Degree Days  
Heating Degree Days 43 40  
Month to date heating degree days 120 120  
Since 1 July heating degree days 4970 5561  
Cooling Degree Days 0 0  
Month to date cooling degree days 0 0  
Year to date cooling degree days 0 0  
Moisture  
Dew Point 16 °F    
Average Humidity 83    
Maximum Humidity 92    
Minimum Humidity 74    
Precipitation  
Precipitation T in 0.08 in 1.52 in (1999)
Month to date precipitation 0.03 0.23  
Year to date precipitation 4.33 5.11  
Sea Level Pressure  
Sea Level Pressure 29.85 in    
Wind  
Wind Speed 5 mph (WSW)    
Max Wind Speed 14 mph    
Max Gust Speed 16 mph    
Visibility 8 miles    
Events Snow    
T = Trace of Precipitation, MM = Missing Value Source: NWS Daily Summary

Daily Weather History Graph

Daily Weather History Graph

Search for Another Location

Airport:

Trip Planner

Search our weather history database for the weather conditions in past years. The results will help you decide how hot, cold, wet, or windy it might be!

Date:

Astronomy

Mar. 03, 2013 Rise Set
Actual Time 6:37 AM EST 5:55 PM EST
Civil Twilight 6:08 AM EST 6:24 PM EST
Nautical Twilight 5:34 AM EST 6:57 PM EST
Astronomical Twilight 5:01 AM EST 7:31 PM EST
Moon No Moon Rise 9:36 AM EST (3/3)
Length of Visible Light 12h 16m
Length of Day
11h 18m
Waning Gibbous, 64% of the Moon is Illuminated
Mar 3
Waning Gibbous
Mar 4
Last Quarter
Mar 11
New
Mar 19
First Quarter
Mar 27
Full

Hourly Weather History & Observations

Time (EST) Temp. Windchill Dew Point Humidity Pressure Visibility Wind Dir Wind Speed Gust Speed Precip Events Conditions
12:56 AM 19.9 °F 12.1 °F 16.0 °F 85% 29.88 in 8.0 mi NW 5.8 mph - 0.00 in Snow Light Snow
1:56 AM 19.9 °F 14.9 °F 16.0 °F 85% 29.87 in 3.0 mi NNW 3.5 mph - 0.00 in Snow Light Snow
2:56 AM 19.9 °F - 16.0 °F 85% 29.86 in 4.0 mi Calm Calm - 0.00 in Snow Light Snow
3:56 AM 19.0 °F - 16.0 °F 88% 29.86 in 4.0 mi Calm Calm - 0.00 in Snow Light Snow
4:56 AM 18.0 °F 12.7 °F 15.1 °F 88% 29.86 in 3.0 mi WNW 3.5 mph - 0.00 in Snow Light Snow
5:04 AM 17.6 °F - 15.8 °F 93% 29.84 in 3.0 mi Calm Calm - 0.00 in Snow Light Snow
5:37 AM 17.6 °F - 14.0 °F 86% 29.84 in 9.0 mi Calm Calm - 0.00 in Snow Light Snow
5:56 AM 18.0 °F - 15.1 °F 88% 29.87 in 10.0 mi Calm Calm - 0.00 in   Overcast
6:56 AM 18.0 °F 12.7 °F 12.9 °F 81% 29.87 in 2.5 mi NNW 3.5 mph - 0.00 in Snow Light Snow
7:03 AM 17.6 °F - 12.2 °F 79% 29.85 in 2.0 mi Calm Calm - 0.00 in Snow Light Snow
7:15 AM 17.6 °F - 12.2 °F 79% 29.85 in 4.0 mi Calm Calm - 0.00 in Snow Light Snow
7:56 AM 18.0 °F - 12.9 °F 81% 29.88 in 9.0 mi Calm Calm - 0.00 in   Overcast
8:48 AM 19.4 °F - 15.8 °F 86% 29.85 in 2.0 mi Calm Calm - 0.00 in Snow Light Snow
8:56 AM 19.9 °F - 15.1 °F 81% 29.88 in 2.0 mi Calm Calm - 0.00 in Snow Light Snow
9:08 AM 21.2 °F 16.4 °F 12.2 °F 68% 29.85 in 3.0 mi Variable 3.5 mph - 0.00 in Snow Light Snow
9:32 AM 21.2 °F - 14.0 °F 74% 29.85 in 9.0 mi Calm Calm - 0.00 in   Overcast
9:56 AM 21.9 °F - 14.0 °F 72% 29.87 in 10.0 mi Calm Calm - 0.00 in   Overcast
10:51 AM 23.0 °F 17.0 °F 15.8 °F 74% 29.83 in 10.0 mi WSW 4.6 mph - N/A   Overcast
10:56 AM 23.0 °F 17.0 °F 15.1 °F 72% 29.86 in 10.0 mi WSW 4.6 mph - N/A   Overcast
11:56 AM 23.0 °F 14.7 °F 15.1 °F 72% 29.86 in 10.0 mi West 6.9 mph - N/A   Overcast
12:56 PM 23.0 °F 17.0 °F 16.0 °F 74% 29.85 in 10.0 mi WSW 4.6 mph - 0.00 in   Overcast
1:56 PM 23.0 °F 13.9 °F 16.0 °F 74% 29.84 in 10.0 mi WSW 8.1 mph - N/A   Overcast
2:56 PM 23.0 °F 11.1 °F 16.0 °F 74% 29.84 in 10.0 mi West 12.7 mph - N/A   Overcast
3:56 PM 23.0 °F 12.4 °F 16.0 °F 74% 29.84 in 10.0 mi SW 10.4 mph - N/A   Overcast
4:56 PM 23.0 °F 13.1 °F 16.0 °F 74% 29.85 in 10.0 mi WSW 9.2 mph - N/A   Mostly Cloudy
5:04 PM 24.8 °F 14.6 °F 15.8 °F 69% 29.82 in 10.0 mi SW 10.4 mph - N/A   Mostly Cloudy
5:42 PM 24.8 °F 16.9 °F 15.8 °F 69% 29.83 in 10.0 mi SW 6.9 mph - N/A   Overcast
5:54 PM 24.8 °F 16.9 °F 15.8 °F 69% 29.83 in 10.0 mi SW 6.9 mph - N/A   Overcast
5:56 PM 24.1 °F 16.0 °F 16.0 °F 71% 29.85 in 9.0 mi WSW 6.9 mph - 0.00 in Snow Light Snow
6:04 PM 24.8 °F 17.9 °F 15.8 °F 69% 29.83 in 8.0 mi WSW 5.8 mph - 0.00 in Snow Light Snow
6:56 PM 24.1 °F 18.2 °F 17.1 °F 75% 29.86 in 10.0 mi SW 4.6 mph - 0.00 in   Overcast
7:19 PM 24.8 °F 17.9 °F 17.6 °F 74% 29.83 in 10.0 mi SW 5.8 mph - N/A   Overcast
7:41 PM 24.8 °F 19.1 °F 17.6 °F 74% 29.83 in 10.0 mi SW 4.6 mph - N/A   Overcast
7:56 PM 24.1 °F 18.2 °F 18.0 °F 77% 29.86 in 10.0 mi WSW 4.6 mph - N/A   Overcast
8:16 PM 24.8 °F 19.1 °F 17.6 °F 74% 29.84 in 10.0 mi WSW 4.6 mph - N/A   Overcast
8:46 PM 24.8 °F 19.1 °F 17.6 °F 74% 29.84 in 10.0 mi WSW 4.6 mph - N/A   Overcast
8:56 PM 25.0 °F 20.7 °F 18.0 °F 75% 29.86 in 10.0 mi WSW 3.5 mph - N/A   Overcast
9:56 PM 25.0 °F 19.3 °F 19.0 °F 78% 29.85 in 10.0 mi WSW 4.6 mph - N/A   Overcast
10:56 PM 25.0 °F 19.3 °F 19.0 °F 78% 29.84 in 10.0 mi West 4.6 mph - 0.00 in   Overcast
11:56 PM 25.0 °F 18.1 °F 19.0 °F 78% 29.84 in 10.0 mi West 5.8 mph - N/A   Overcast